This demonstration page uses our WeatherBlox Daily Observations layout. Learn more.

Left ArrowRight Arrow

34.74481, -87.66753

Hourly Observations for February 26, 2021

Temp ( °F °C ) Dew Point ( °F °C ) Humidity (%) Winds ( mph kmh ) Pressure ( in mb ) Visibility ( mi km ) Precip ( " mm )
12:53 am 00:53 Cloudy with Rain 47 8.3 40 4.4 77 77 NNE 3 6 30.16 1021 6 10 0.12 3.05
1:53 am 01:53 Cloudy with Rain 47 8.3 39 3.9 74 74 Calm 30.16 1021 5 8 0.07 1.78
2:53 am 02:53 Cloudy with Rain 46 7.8 39 3.9 77 77 NNE 6 9 30.14 1021 4 6 0.20 5.08
3:53 am 03:53 Cloudy with Rain 46 7.8 40 4.4 79 79 E 7 11 30.11 1020 5 8 0.09 2.29
4:53 am 04:53 Cloudy with Rain 46 7.8 40 4.4 79 79 ENE 12 19 30.09 1019 5 8 0.20 5.08
5:35 am 05:35 Cloudy with Light Rain 46 7.8 40 4.4 79 79 E 3 6 30.13 1020 6 10 0.06 1.52
5:53 am 05:53 Cloudy with Rain 46 7.8 41 5 83 83 ESE 7 11 30.09 1019 3 5 0.12 3.05
6:01 am 06:01 Cloudy with Rain 46 7.8 40 4.4 79 79 ESE 9 15 30.12 1020 3 5 0.03 0.76
6:53 am 06:53 Cloudy with Heavy Rain 46 7.8 40 4.4 79 79 E 8 13 30.09 1019 4 6 0.19 4.83
7:07 am 07:07 Cloudy with Rain 46 7.8 41 5 83 83 ESE 7 11 30.11 1020 3 4 0.06 1.52
7:17 am 07:17 Cloudy with Rain 46 7.8 41 5 83 83 ESE 8 13 30.11 1020 3 4 0.10 2.54
7:26 am 07:26 Cloudy with Light Rain 46 7.8 41 5 83 83 SE 6 9 30.12 1020 4 6 0.11 2.79
7:34 am 07:34 Cloudy with Light Rain 47 8.3 42 5.6 83 83 SSE 5 7 30.14 1021 4 6 0.12 3.05
7:44 am 07:44 Cloudy with Rain 47 8.3 42 5.6 83 83 Calm 30.15 1021 2 3 0.15 3.81
7:53 am 07:53 Cloudy with Rain 47 8.3 43 6.1 86 86 Calm 30.14 1021 2 3 0.18 4.57
8:15 am 08:15 Cloudy with Rain 47 8.3 41 5 80 80 ESE 5 7 30.15 1021 3 4 0.07 1.78
8:51 am 08:51 Cloudy with Light Rain 46 8 43 6 87 87 ESE 5 7 30.13 1020 3 5 0.14 3.56
8:53 am 08:53 Cloudy with Light Rain 47 8.3 43 6.1 86 86 ESE 5 7 30.12 1020 3 5 0.14 3.56
9:05 am 09:05 Cloudy with Rain 48 8.9 43 6.1 83 83 ESE 7 11 30.12 1020 3 4 0.02 0.51
9:11 am 09:11 Cloudy with Rain 48 8.9 43 6.1 83 83 Calm 30.13 1020 3 4 0.02 0.51
9:53 am 09:53 Cloudy with Light Rain 49 9.4 44 6.7 83 83 ESE 6 9 30.11 1020 4 6 0.08 2.03
10:10 am 10:10 Cloudy with Rain 49 9.4 45 7.2 86 86 Calm 30.15 1021 3 4 0.01 0.25
10:20 am 10:20 Cloudy with Rain 50 10 45 7.2 83 83 Calm 30.15 1021 2 2 0.05 1.27
10:32 am 10:32 Cloudy with Light Rain 50 10 45 7.2 83 83 Calm 30.15 1021 3 4 0.07 1.78
10:41 am 10:41 Cloudy with Light Rain 50 10 45 7.2 83 83 Calm 30.14 1021 3 5 0.08 2.03
10:53 am 10:53 Cloudy with Light Rain 50 10 45 7.2 83 83 NNW 3 6 30.12 1020 3 5 0.09 2.29
11:05 am 11:05 Cloudy with Light Rain 51 10.6 46 7.8 83 83 NE 3 6 30.13 1020 5 8 0.00 0.00
11:15 am 11:15 Cloudy with Light Rain 51 10.6 46 7.8 83 83 Calm 30.13 1020 4 6 0.01 0.25
11:24 am 11:24 Cloudy with Light Rain 51 10.6 46 7.8 83 83 NW 6 9 30.14 1021 3 4 0.02 0.51
11:53 am 11:53 Cloudy with Rain 51 10.6 46 7.8 83 83 NNE 3 6 30.10 1019 3 4 0.05 1.27
12:18 pm 12:18 Cloudy with Light Rain 52 11.1 47 8.3 83 83 ESE 7 11 30.07 1018 4 6 0.04 1.02
12:53 pm 12:53 Cloudy with Light Rain 53 11.7 49 9.4 86 86 SE 6 9 30.02 1017 6 10 0.04 1.02
1:13 pm 13:13 Cloudy with Light Rain 55 12.8 50 10 83 83 SE 14 22 30.00 1016 6 10 0.01 0.25
1:48 pm 13:48 Cloudy with Light Rain 57 14 52 11 82 82 SSE 16 26 29.98 1015 7 11 0.02 0.51
1:53 pm 13:53 Cloudy with Light Rain 57 13.9 51 10.6 81 81 SE 20 31 29.97 1015 9 14 0.02 0.51
2:05 pm 14:05 Cloudy 57 13.9 51 10.6 81 81 SSE 17 28 29.98 1015 10 16 0.00 0.00
2:46 pm 14:46 Cloudy with Light Rain 57 13.9 51 10.6 81 81 SSE 12 19 29.98 1015 10 16 0.00 0.00
2:53 pm 14:53 Cloudy with Light Rain 57 13.9 52 11.1 83 83 SSE 8 13 29.97 1015 7 11 0.00 0.00
3:14 pm 15:14 Cloudy with Light Rain 58 14.4 52 11.1 81 81 SSE 10 17 29.98 1015 7 11 0.01 0.25
3:53 pm 15:53 Cloudy with Light Rain 58 14.4 53 11.7 84 84 S 6 9 29.97 1015 6 10 0.04 1.02
4:43 pm 16:43 Cloudy with Light Rain 58 14.4 52 11.1 81 81 SSE 3 6 29.96 1015 3 4 0.04 1.02
4:51 pm 16:51 Cloudy with Light Rain 57 14 52 11 82 82 SE 3 6 29.96 1015 3 5 0.05 1.27
4:53 pm 16:53 Cloudy with Light Rain 58 14.4 52 11.1 81 81 ESE 3 6 29.96 1015 2 3 0.06 1.52
5:00 pm 17:00 Cloudy with Rain 57 13.9 52 11.1 83 83 SE 3 6 29.96 1015 2 3 0.01 0.25
5:07 pm 17:07 Cloudy with Light Rain 57 13.9 53 11.7 87 87 SE 5 7 29.96 1015 3 4 0.02 0.51
5:34 pm 17:34 Cloudy with Rain 57 13.9 52 11.1 83 83 SE 8 13 29.96 1015 3 5 0.07 1.78
5:53 pm 17:53 Cloudy with Heavy Rain 57 13.9 52 11.1 83 83 SE 7 11 29.96 1015 3 5 0.13 3.30
6:53 pm 18:53 Cloudy 57 13.9 52 11.1 83 83 SE 9 15 29.96 1014 10 16 0.03 0.76
7:53 pm 19:53 Cloudy 56 13.3 52 11.1 87 87 ESE 6 9 29.96 1015 10 16 0.00 0.00
8:53 pm 20:53 Mostly Cloudy 56 13.3 51 10.6 84 84 ESE 6 9 29.96 1014 9 14 0.00 0.00
9:53 pm 21:53 Cloudy 57 13.9 52 11.1 83 83 SE 8 13 29.95 1014 7 11 0.00 0.00
10:53 pm 22:53 Cloudy with Mist and Fog 57 13.9 53 11.7 87 87 SE 5 7 29.94 1014 6 10 0.00 0.00
11:53 pm 23:53 Partly Cloudy 65 18.3 58 14.4 78 78 S 15 24 29.93 1014 10 16 0.00 0.00

Powered by AerisWeather